Amateur Radio Satellites - All Passes

Search period start: 19 June 2013 15:26
Search period end: 20 June 2013 15:26
Location: Lawrence, 38.9720°N, 95.2350°W

Satellite Date Start Highest point End Downlink Frequencies (MHz)
Time Altitude Azimuth
Gurwin Techsat 1B 19 Jun 15:29:59 15:34:52 39° 70° (ENE) 15:39:46 435.225 FM
ITAMSAT 1 19 Jun 15:32:48 15:37:07 26° 265° (W) 15:41:28 435.822 SSB
AO-27 19 Jun 15:34:04 15:38:18 25° 265° (W) 15:42:34 436.795 MHz FM
Oscar 16 19 Jun 15:55:56 15:57:20 11° 271° (W) 15:58:45 437.025 USB, Beacon 2401.1428
AO-Echo 19 Jun 16:08:47 16:12:52 29° 264° (W) 16:17:02 ?
Uribyol 2 19 Jun 16:09:19 16:11:03 12° 270° (W) 16:12:47 436.500 FM
ISS 19 Jun 16:17:15 16:20:31 80° 140° (SE) 16:23:49 145.800 FM
AO-7 19 Jun 16:25:17 16:32:55 42° 62° (ENE) 16:40:34 29.400 - 29.500 MHz
Uosat F 19 Jun 16:27:28 16:32:21 53° 260° (W) 16:37:17 435.120 FM
TMSAT-1 19 Jun 16:28:45 16:34:03 89° 256° (WSW) 16:39:24 436.925 FM
KITSAT 1 19 Jun 17:02:21 17:09:31 37° 108° (ESE) 17:16:45 435.175 FM
Gurwin Techsat 1B 19 Jun 17:10:39 17:14:56 25° 265° (W) 17:19:15 435.225 FM
RS-15 19 Jun 17:30:47 17:37:42 17° 4° (N) 17:44:27 29.354 - 29.394 USB, Beacon 29.352 USB
ISS 19 Jun 17:55:15 17:57:33 17° 338° (NNW) 17:59:51 145.800 FM
AO-7 19 Jun 18:17:49 18:25:36 43° 260° (W) 18:33:28 29.400 - 29.500 MHz
MaSat-1 19 Jun 18:39:55 18:40:47 10° 105° (ESE) 18:41:38 437.345 MHz
STRAND 1 19 Jun 18:53:22 18:57:22 22° 94° (E) 19:01:21 ?
KITSAT 1 19 Jun 18:56:55 19:04:41 50° 307° (NW) 19:12:31 435.175 FM
JAS-1B 19 Jun 19:09:02 19:15:13 36° 69° (ENE) 19:20:39 435.800 - 435.900 CW/SSB
Hamsat 19 Jun 19:21:38 19:25:54 61° 75° (ENE) 19:30:14 145.90 MHz
RS-15 19 Jun 19:45:03 19:54:58 35° 39° (NE) 20:04:36 29.354 - 29.394 USB, Beacon 29.352 USB
SO-67 19 Jun 20:00:09 20:03:35 47° 75° (ENE) 20:07:03 435.3500 MHz FM
MaSat-1 19 Jun 20:16:41 20:22:27 86° 294° (WNW) 20:26:53 437.345 MHz
AO-40 19 Jun 20:21:09 02:40:17 47° 177° (S) 08:52:31 Beacon 2401.320
STRAND 1 19 Jun 20:31:52 20:36:42 41° 290° (WNW) 20:41:29 ?
KITSAT 1 19 Jun 20:58:16 21:02:20 14° 332° (NNW) 21:06:25 435.175 FM
JAS-1B 19 Jun 20:59:32 21:05:51 34° 261° (W) 21:11:24 435.800 - 435.900 CW/SSB
Hamsat 19 Jun 21:01:16 21:02:22 11° 270° (W) 21:03:27 145.90 MHz
Oscar 11 19 Jun 21:06:38 21:08:09 12° 63° (ENE) 21:09:39 145.825 FM, Beacon 2401.500 USB
JAS-2 19 Jun 21:08:29 21:14:54 34° 68° (ENE) 21:20:45 435.800 - 435.900 CW/SSB, 435.910 FM
ISS 19 Jun 21:11:15 21:13:10 15° 19° (NNE) 21:15:05 145.800 FM
HO-68 19 Jun 21:16:01 21:22:44 47° 67° (ENE) 21:29:30 435.675 MHz FM
Saudisat 1A 19 Jun 21:44:59 21:48:28 22° 111° (ESE) 21:52:00 436.775 MHz
RS-15 19 Jun 21:57:23 22:08:21 75° 244° (WSW) 22:19:09 29.354 - 29.394 USB, Beacon 29.352 USB
PANSAT 19 Jun 22:02:43 22:04:41 14° 168° (SSE) 22:06:39 not established
OPAL 19 Jun 22:03:25 22:06:52 19° 62° (ENE) 22:10:17 ?
Oscar 11 19 Jun 22:39:29 22:43:48 64° 259° (W) 22:48:10 145.825 FM, Beacon 2401.500 USB
ISS 19 Jun 22:47:05 22:50:22 67° 37° (NE) 22:53:38 145.800 FM
JAS-2 19 Jun 22:52:40 22:59:45 45° 261° (W) 23:06:11 435.800 - 435.900 CW/SSB, 435.910 FM
HO-68 19 Jun 23:04:21 23:10:33 32° 263° (W) 23:16:49 435.675 MHz FM
Oscar 10/S400 19 Jun 23:21:45 06:47:26 52° 106° (ESE) 09:35:23 145.825 - 145.975 CW/USB, Beacon 145.810 USB
Saudisat 1A 19 Jun 23:23:37 23:27:55 39° 307° (NW) 23:32:16 436.775 MHz
OPAL 19 Jun 23:40:29 23:45:22 50° 258° (WSW) 23:50:14 ?
PANSAT 19 Jun 23:41:47 23:44:23 17° 181° (S) 23:46:59 not established
Sapphire 19 Jun 23:53:32 23:55:05 11° 102° (ESE) 23:56:38 437.095 MHz 1200 baud AX-25 AFSK
RS-15 20 Jun 00:13:41 00:18:35 14° 263° (W) 00:23:30 29.354 - 29.394 USB, Beacon 29.352 USB
ISS 20 Jun 00:25:25 00:26:38 12° 232° (SW) 00:27:52 145.800 FM
SO-50 20 Jun 00:35:17 00:38:14 16° 109° (ESE) 00:41:09 436.795 FM
KITSAT 1 20 Jun 00:56:43 01:02:05 19° 35° (NE) 01:07:26 435.175 FM
PCSat 20 Jun 00:57:56 01:03:08 51° 113° (ESE) 01:08:22 145.825 MHz
PANSAT 20 Jun 01:22:35 01:24:04 12° 194° (SSW) 01:25:32 not established
Sapphire 20 Jun 01:32:17 01:37:42 86° 298° (WNW) 01:43:09 437.095 MHz 1200 baud AX-25 AFSK
ITAMSAT 1 20 Jun 02:08:34 02:11:11 14° 91° (E) 02:13:47 435.822 SSB
AO-27 20 Jun 02:09:39 02:12:30 15° 91° (E) 02:15:21 436.795 MHz FM
SO-50 20 Jun 02:13:45 02:18:26 55° 305° (NW) 02:23:03 436.795 FM
Oscar 16 20 Jun 02:25:46 02:30:16 30° 96° (E) 02:34:45 437.025 USB, Beacon 2401.1428
Uribyol 2 20 Jun 02:40:23 02:44:58 30° 96° (E) 02:49:30 436.500 FM
PCSat 20 Jun 02:42:30 02:46:50 24° 311° (NW) 02:51:11 145.825 MHz
KITSAT 1 20 Jun 02:51:00 02:59:08 68° 58° (ENE) 03:07:12 435.175 FM
Sapphire 20 Jun 03:19:04 03:21:57 14° 317° (NW) 03:24:51 437.095 MHz 1200 baud AX-25 AFSK
Oscar 19 20 Jun 03:19:18 03:24:27 88° 104° (ESE) 03:29:33 437.125 CW, 437.150 USB
ITAMSAT 1 20 Jun 03:45:57 03:51:08 66° 286° (WNW) 03:56:18 435.822 SSB
AO-27 20 Jun 03:47:16 03:52:27 63° 287° (WNW) 03:57:35 436.795 MHz FM
Gurwin Techsat 1B 20 Jun 03:48:27 03:51:52 17° 92° (E) 03:55:15 435.225 FM
UOSAT-12 20 Jun 03:50:28 03:54:28 32° 114° (ESE) 03:58:31 437.025 FM, 437.400 FM
Oscar 16 20 Jun 04:05:08 04:09:33 30° 292° (WNW) 04:13:57 437.025 USB, Beacon 2401.1428
AO-Echo 20 Jun 04:15:59 04:21:11 87° 284° (WNW) 04:26:28 ?
Uribyol 2 20 Jun 04:19:51 04:24:23 31° 292° (WNW) 04:28:53 436.500 FM
AO-7 20 Jun 04:31:40 04:34:15 12° 88° (E) 04:36:49 29.400 - 29.500 MHz
Uosat F 20 Jun 04:36:25 04:41:22 52° 100° (E) 04:46:16 435.120 FM
TMSAT-1 20 Jun 04:46:09 04:51:09 41° 98° (E) 04:56:07 436.925 FM
KITSAT 1 20 Jun 04:47:33 04:53:49 25° 256° (WSW) 05:00:05 435.175 FM
Oscar 19 20 Jun 05:01:33 05:03:02 11° 300° (WNW) 05:04:30 437.125 CW, 437.150 USB
MaSat-1 20 Jun 05:01:57 05:03:15 13° 57° (ENE) 05:04:32 437.345 MHz
Gurwin Techsat 1B 20 Jun 05:26:58 05:32:10 56° 288° (WNW) 05:37:20 435.225 FM
UOSAT-12 20 Jun 05:30:47 05:34:39 27° 311° (NW) 05:38:33 437.025 FM, 437.400 FM
AO-Echo 20 Jun 05:57:58 05:59:12 11° 300° (WNW) 06:00:27 ?
STRAND 1 20 Jun 06:08:14 06:12:37 29° 67° (ENE) 06:17:01 ?
Saudisat 1A 20 Jun 06:13:24 06:16:13 16° 43° (NE) 06:19:00 436.775 MHz
Uosat F 20 Jun 06:16:22 06:19:44 18° 296° (WNW) 06:23:06 435.120 FM
AO-7 20 Jun 06:19:57 06:28:20 72° 105° (ESE) 06:36:39 29.400 - 29.500 MHz
TMSAT-1 20 Jun 06:26:38 06:30:50 24° 294° (WNW) 06:35:01 436.925 FM
MaSat-1 20 Jun 06:43:45 06:44:50 12° 253° (WSW) 06:45:56 437.345 MHz
Hamsat 20 Jun 07:11:27 07:13:20 13° 90° (E) 07:15:12 145.90 MHz
STRAND 1 20 Jun 07:47:12 07:51:43 31° 263° (W) 07:56:17 ?
Saudisat 1A 20 Jun 07:51:53 07:56:23 67° 241° (WSW) 08:00:47 436.775 MHz
AO-7 20 Jun 08:13:51 08:20:22 26° 304° (NW) 08:26:53 29.400 - 29.500 MHz
Sapphire 20 Jun 08:41:31 08:42:21 10° 39° (NE) 08:43:11 437.095 MHz 1200 baud AX-25 AFSK
JAS-1B 20 Jun 08:43:04 08:48:58 66° 103° (ESE) 08:55:46 435.800 - 435.900 CW/SSB
Hamsat 20 Jun 08:45:26 08:49:43 53° 286° (WNW) 08:53:56 145.90 MHz
SO-67 20 Jun 09:01:12 09:04:48 78° 101° (ESE) 09:08:23 435.3500 MHz FM
SO-50 20 Jun 09:08:06 09:10:19 13° 41° (NE) 09:12:30 436.795 FM
PCSat 20 Jun 09:47:15 09:52:08 33° 53° (NE) 09:56:58 145.825 MHz
JAS-2 20 Jun 10:04:41 10:08:52 23° 94° (E) 10:12:56 435.800 - 435.900 CW/SSB, 435.910 FM
RS-15 20 Jun 10:10:51 10:18:22 19° 99° (E) 10:25:41 29.354 - 29.394 USB, Beacon 29.352 USB
Sapphire 20 Jun 10:21:36 10:26:58 58° 59° (ENE) 10:32:18 437.095 MHz 1200 baud AX-25 AFSK
Oscar 11 20 Jun 10:29:14 10:32:51 25° 95° (E) 10:36:26 145.825 FM, Beacon 2401.500 USB
HO-68 20 Jun 10:32:06 10:39:07 54° 101° (ESE) 10:46:06 435.675 MHz FM
JAS-1B 20 Jun 10:35:25 10:39:15 18° 297° (WNW) 10:43:21 435.800 - 435.900 CW/SSB
SO-50 20 Jun 10:47:01 10:51:34 86° 239° (WSW) 10:56:02 436.795 FM
PCSat 20 Jun 11:30:39 11:35:31 34° 250° (WSW) 11:40:21 145.825 MHz
JAS-2 20 Jun 11:49:15 11:54:08 37° 291° (WNW) 11:58:50 435.800 - 435.900 CW/SSB, 435.910 FM
OPAL 20 Jun 11:51:28 11:56:14 45° 101° (ESE) 12:01:01 ?
Oscar 11 20 Jun 12:05:19 12:09:01 27° 291° (WNW) 12:12:41 145.825 FM, Beacon 2401.500 USB
Sapphire 20 Jun 12:06:20 12:09:53 18° 255° (WSW) 12:13:26 437.095 MHz 1200 baud AX-25 AFSK
RS-15 20 Jun 12:17:03 12:29:06 84° 118° (ESE) 12:40:39 29.354 - 29.394 USB, Beacon 29.352 USB
HO-68 20 Jun 12:20:27 12:26:25 30° 299° (WNW) 12:32:23 435.675 MHz FM
UOSAT-12 20 Jun 12:21:14 12:24:57 23° 47° (NE) 12:28:39 437.025 FM, 437.400 FM
Oscar 19 20 Jun 12:59:01 13:01:29 14° 61° (ENE) 13:03:57 437.125 CW, 437.150 USB
ITAMSAT 1 20 Jun 13:25:14 13:28:56 20° 64° (ENE) 13:32:40 435.822 SSB
AO-27 20 Jun 13:26:30 13:30:20 21° 64° (ENE) 13:34:11 436.795 MHz FM
OPAL 20 Jun 13:31:12 13:34:49 21° 297° (WNW) 13:38:27 ?
Oscar 16 20 Jun 13:41:35 13:46:23 40° 70° (ENE) 13:51:11 437.025 USB, Beacon 2401.1428
AO-Echo 20 Jun 13:53:24 13:54:49 11° 61° (ENE) 13:56:14 ?
Uribyol 2 20 Jun 13:57:06 14:01:57 41° 70° (ENE) 14:06:51 436.500 FM
UOSAT-12 20 Jun 14:00:56 14:05:16 41° 245° (WSW) 14:09:36 437.025 FM, 437.400 FM
RS-15 20 Jun 14:32:36 14:42:53 33° 322° (NW) 14:52:50 29.354 - 29.394 USB, Beacon 29.352 USB
Oscar 19 20 Jun 14:35:02 14:40:12 74° 258° (WSW) 14:45:22 437.125 CW, 437.150 USB
ITAMSAT 1 20 Jun 15:03:02 15:08:03 49° 260° (W) 15:13:08 435.822 SSB
AO-27 20 Jun 15:04:31 15:09:31 47° 261° (W) 15:14:33 436.795 MHz FM
Gurwin Techsat 1B 20 Jun 15:08:17 15:12:31 25° 66° (ENE) 15:16:46 435.225 FM

Developed and maintained by Chris Peat, Heavens-Above GmbH. Please read the updated FAQ before sending e-mail. Imprint. DLR
